Back to catalog

YAOGAN 22

AliveMilitarySSO
NORAD 40275·PAYLOAD·🇨🇳 China

Launched Oct 20, 2014 from Taiyuan Satellite Launch Center

Loading…

Next Passes (next 24 hours)

TLE

FreshSource: Space-Track

Epoch: Sep 14, 2026, 09:26 UTC

1 40275U 14063A   26257.39344761 -.00000027  00000-0  53759-4 0  9994
2 40275 100.7863  50.2039 0006207 354.9353   5.1694 13.15533188571546

Track YAOGAN 22 in real time with AllMySat

Download on the App Store